Racecast

Johnathan Ball

Temperance Bedford (MI) · 12 · SECMI D1MONROE · Compare head to head

Athlete rating 107.9 2024 TF season
Best race 112.1 XC
Races 72
Seasons 7 2018 — 2024

RankedNation #69243·MI #2935·MI D1 #1656·SEC #171·Team #26 ?

Rating scale ?
Speed rating — all races

Cross Country

XC speed rating

2023 XC 106.4

Temperance Bedford (MI) · Grade 12

Date Meet Event Result Place Rating Difficulty PR/SR Flags
2023-10-28 Lake Erie Metro Park OFFICIAL 5000m 19:04.3 50th · 10th on team 108.2 +0.007 ★CR CSR
2023-10-19 Hudson Mills Metropark - OFFICIAL 5000m 19:29.5 49th · 8th on team 104.6 -0.006 CSR
2023-10-14 Munson Park 5000m 19:46.9 26th · 10th on team 105.1 +0.007 ★CR CSR
2023-10-07 Portage West MS 5000m 19:48.4 199th · 3rd on team 103.8 -0.003 ★CR CSR
2023-09-30 Lake Erie Metro Park OFFICIAL 5000m 19:22 13th · 9th on team 107.0 +0.007 CR CSR
2023-09-27 Saline High School 5000m 18:37.8 22nd · 6th on team 109.1 -0.009 ★PR ★CR SR CSR RSR
2023-09-22 Ella Sharp Park OFFICIAL 5000m 19:00.9 27th · 5th on team 108.4 -0.001 ★CR CSR RSR
2023-09-16 Ottawa Park Golf Course 5000m 19:19.9 46th · 7th on team 106.1 -0.001 ★CR CSR
2023-09-13 Indian Creek OFFICIAL 5000m 19:26.8 99th · 10th on team 105.9 +0.004 ★CR CSR
2023-09-09 Hedges Boyer Park 5000m 18:49.5 68th · 4th on team 108.0 -0.003 PR ★CR SR CSR RSR
2023-09-02 Forest Creason Golf Course 5000m 19:24.2 88th · 11th on team 106.3 -0.002 ★CR SR CSR RSR
2023-08-18 Ford Field/EE Ice Arena(LIVONIA) OFFICIAL 5000m 19:46.1 120th · 10th on team 104.6 +0.013 ★CR SR CSR RSR

2022 XC 102.8

Temperance Bedford (MI) · Grade 11

Date Meet Event Result Place Rating Difficulty PR/SR Flags
2022-10-29 Milan HS OFFICIAL 5000m 19:12.9 62nd · 7th on team 107.8 +0.008 PR ★CR SR CSR RSR
2022-10-20 Hudson Mills Metropark - OFFICIAL 5000m 19:26.5 98th · 9th on team 104.9 -0.006 ★CR CSR
2022-10-15 Munson Park 5000m 19:57.3 33rd · 5th on team 104.4 +0.007 CR CSR
2022-10-01 Lake Erie Metro Park OFFICIAL 5000m 20:05.6 33rd · 8th on team 103.8 +0.007 CR CSR
2022-09-28 Pioneer HS 5000m 20:47.5 75th · 11th on team 100.4 +0.018 ★CR CSR
2022-09-23 Ella Sharp Park OFFICIAL 5000m 19:23.7 89th · 9th on team 107.0 -0.001 PR CR SR CSR RSR
2022-09-14 Ella Sharp Park OFFICIAL 5000m 20:09.6 57th · 4th on team 103.1 -0.001 PR CR SR CSR RSR
2022-09-10 Hedges Boyer Park 5000m 20:39.9 153rd · 9th on team 100.4 -0.003 CR SR CSR RSR
2022-08-19 Ford Field/EE Ice Arena(LIVONIA) OFFICIAL 5000m 22:31.8 37th · 6th on team 93.4 +0.013 CR SR CSR RSR

2021 XC 99.3

Temperance Bedford (MI) · Grade 10

Date Meet Event Result Place Rating Difficulty PR/SR Flags
2021-10-30 Lake Erie Metro Park OFFICIAL 5000m 22:04.6 84th · 16th on team 95.0 +0.007
2021-10-21 Hudson Mills Metropark - OFFICIAL 5000m 20:36.9 119th · 16th on team 101.5 -0.006 CR CSR
2021-10-16 Munson Park 5000m 22:43.1 35th · 15th on team 93.0 +0.007
2021-10-02 Lake Erie Metro Park OFFICIAL 5000m 20:37.2 44th · 10th on team 102.4 +0.007 CR CSR
2021-09-28 Munson Park 5000m 21:33 87th · 9th on team 98.3 +0.007 CR CSR
2021-09-24 Ella Sharp Park OFFICIAL 5000m 20:36 124th · 15th on team 103.0 -0.001 CR CSR RSR
2021-09-18 Ottawa Park Golf Course 5000m 20:42.4 64th · 7th on team 101.2 -0.001 CR CSR
2021-09-11 Hedges Boyer Park 5000m 20:58.5 164th · 13th on team 100.1 -0.003 CR CSR
2021-09-04 BGSU 5000m 20:17.1 119th · 18th on team 102.8 -0.003 PR ★CR SR CSR RSR
2021-08-28 Walsh Park 5000m 22:17.9 38th · 13th on team 95.7 +0.012 PR ★CR SR CSR RSR

2020 XC

Temperance Bedford (MI) · Grade 9

Date Meet Event Result Place Rating Difficulty PR/SR Flags
2020-10-15 Saline High School 5000m -0.009 PR CR SR CSR

2019 XC 104.9

Temperance Bedford (MI) · Grade 8

Date Meet Event Result Place Rating Difficulty PR/SR Flags
2019-10-12 Munson Park 3200m 14:30.3 65th · 24th on team 103.8 +0.000 ★CR CSR
2019-10-09 Indian Creek OFFICIAL 3200m 13:27 20th · 8th on team 112.1 -0.001 ★PR ★CR ★R SR CSR RSR
2019-10-05 Munson Park 3218m 13:58.2 56th · 18th on team 107.4 +0.000 ★PR ★CR SR CSR
2019-09-28 Lake Erie Metro Park OFFICIAL 3218m 14:16.2 80th · 17th on team 105.2 -0.000 PR ★CR SR CSR
2019-09-24 Hudson Mills Metropark - OFFICIAL 3218m 15:21.1 62nd · 21st on team 101.7 +0.020 PR ★CR SR CSR
2019-09-21 Maumee Bay State Park 3200m 15:12 100th · 17th on team 103.2 +0.037 ★CR CSR
2019-09-14 Ottawa Park Golf Course 3200m 13:53.7 45th · 17th on team 111.6 +0.027 PR ★CR R SR CSR RSR
2019-09-07 Hedges Boyer Park 2816m 14:13.7 19th · 12th on team 94.1 ★PR ★CR SR CSR RSR

2018 XC 96.6

Temperance Bedford (MI) · Grade 7

Date Meet Event Result Place Rating Difficulty PR/SR Flags
2018-10-10 Saline High School 3200m 15:09 71st · 13th on team 98.9 -0.021 PR ★CR SR CSR
2018-10-06 Munson Park 3218m 15:21.6 67th · 21st on team 99.5 +0.000 PR CR SR CSR
2018-09-29 Lake Erie Metro Park OFFICIAL 3218m 15:49.8 153rd · 23rd on team 95.5 -0.000 CR CSR
2018-09-25 Hudson Mills Metropark - OFFICIAL 3218m 16:48.1 76th · 15th on team 91.4 +0.020 CR CSR
2018-09-15 Ottawa Park Golf Course 3200m 15:24.8 21st · 21st on team 101.1 +0.027 PR CR R SR CSR RSR
2018-09-12 Tecumseh HS 3218m 15:25.2 64th · 15th on team 96.5 -0.008 PR ★CR R SR CSR RSR
2018-08-30 Eastwood HS 3200m 16:27 140th · 17th on team 93.2 +0.017 PR ★CR R SR CSR RSR

Track & Field

TF speed rating

2024 TF 105.2

Temperance Bedford (MI) · Grade 12

Date Meet Event Result Place Rating Difficulty PR/SR Flags
2024-05-11 Erie Mason Invitational - 59th Annual 800m 2:21.71 20th · 2nd on team 108.1 -0.027 ★PR SR RSR
2024-04-30 SEC-HS: Bedford @ Lincoln 1600m 5:18.31 8th · 6th on team 107.0 -0.021 ★PR SR RSR
2024-04-30 SEC-HS: Bedford @ Lincoln 800m 2:28.37 14th · 10th on team 102.7 -0.021
2024-04-16 SEC-HS: Skyline & Bedford at Dexter 800m 2:26.9 20th · 4th on team 103.0 -0.027 PR SR RSR

2023 TF 101.8

Temperance Bedford (MI) · Grade 11

Date Meet Event Result Place Rating Difficulty PR/SR Flags
2023-05-02 SEC-HS: Monroe @ Bedford 800m 2:26.94 4th · 3rd on team 105.3 -0.026 PR SR RSR
2023-04-25 SEC-HS: Bedford & Lincoln @ Skyline 800m 2:28.07 17th · 7th on team 102.9 -0.021 PR SR RSR
2023-04-18 SEC-HS: Huron & Bedford @ Saline 1600m 5:41.17 43rd · 8th on team 99.6 -0.033
2023-04-10 SEC-HS: Pioneer & Dexter @ Bedford 800m 2:32.14 31st · 7th on team 99.5 -0.026 PR SR RSR
2023-04-10 SEC-HS: Pioneer & Dexter @ Bedford 1600m 5:32.86 30th · 8th on team 101.5 -0.026 PR SR RSR

2022 TF 93.2

Temperance Bedford (MI) · Grade 10

Date Meet Event Result Place Rating Difficulty PR/SR Flags
2022-05-18 '22 Lincoln JV Invite 800m 2:47.78 28th · 4th on team 92.2 -0.021 PR SR
2022-05-04 SEC-HS: Skyline at Bedford 1600m 6:02.82 21st · 13th on team 94.3 -0.026 SR RSR

2021 TF 90.8

Temperance Bedford (MI) · Grade 9

Date Meet Event Result Place Rating Difficulty PR/SR Flags
2021-05-19 Lincoln JV Invite 1600m 6:08.68 77th · 7th on team 93.8 -0.021
2021-05-11 SEC-HS: Bedford & Ypsi vs Skyline (@Lincoln) 1600m 5:59.64 11th · 5th on team 96.2 -0.021 PR SR RSR
2021-04-27 SEC-HS: Bedford at AA Pioneer 1600m 6:39.13 21st · 5th on team 87.1 -0.017
2021-04-22 SEC-HS: AA Huron, Saline at Bedford 3200m 13:23 7th · 2nd on team 93.2 -0.024 ★PR SR RSR
2021-04-15 Titan Freshman Invitational 1600m 6:35.91 6th · 1st on team 86.6 -0.035
2021-03-30 Bedford at Whitmer 1600m 6:28.9 10th · 4th on team 88.0 -0.034 PR SR RSR

2019 TF 94.7

Temperance Bedford (MI) · Grade 7

Date Meet Event Result Place Rating Difficulty PR/SR Flags
2019-05-13 Lincoln MS @ Bedford MS lj 8-10.00 -0.026
2019-05-13 Lincoln MS @ Bedford MS 400m 1:28.46 23rd · 17th on team -0.026 ★PR SR
2019-05-06 Ypsilanti MS @ Bedford lj 10-00.00 -0.026
2019-05-06 Ypsilanti MS @ Bedford 800m 3:08.67 8th · 8th on team 97.8 -0.026 PR SR RSR
2019-05-02 Bedford MS @ Monroe MS lj 6' 1" -0.022
2019-05-02 Bedford MS @ Monroe MS 800m 3:09.3 6th · 3rd on team 97.5 -0.022 PR SR RSR
2019-04-22 SEC-MS: Adrian @ Bedford lj 6-09.50 -0.026
2019-04-22 SEC-MS: Adrian @ Bedford 800m 3:27.84 8th · 3rd on team 88.6 -0.026 PR SR RSR